"Pseudo-MPEC" for C158822

Created 2019 Oct 11 13:07:14 UT using Find_Orb

Click here for an explanation of pseudo-MPECs

 
 Astrometry: 
     C158822  C2019 09 27JenA\$rt*2hhSs3)X*LD,r(5v+!IQ1C!vkw3pIaT[OB4I/q[9x%EF51
     C158822  C2019 09 27pa[Fm6IxGGAstrometryyx8P1.yr[!_I$HA_bs?aCZviM29KZ`%2F51
     C158822  C2019 09 29RUCaUoWjJp9O?4h[--BPh?@oQ3redacted;ueMTQ%/N@Cx.HnQg6F51
     C158822  C2019 10 09.28834 02 30 10.90 +14 28 10.9    ~A97q       VNEOCPG96
     C158822  C2019 10 09.29352 02 30 14.36 +14 28 35.9    ~A97q 20.9 GVNEOCPG96
     C158822  C2019 10 09.29869 02 30 17.78 +14 29 01.8    ~A97q 20.9 GVNEOCPG96
     C158822  C2019 10 09.30385 02 30 21.28 +14 29 28.4    ~A97q 20.9 GVNEOCPG96
     C158822  C2019 10 09.33311902 30 40.46 +14 31 53.5    ~A98q 20.2 GVNEOCPH01
     C158822  C2019 10 09.33997302 30 45.03 +14 32 27.9    ~A98q 20.8 GVNEOCPH01
     C158822  C2019 10 09.35053202 30 52.09 +14 33 20.8    ~A98q 21.6 GVNEOCPH01
     C158822  C2019 10 09.35846902 30 57.42 +14 34 00.5    ~A98q 21.6 GVNEOCPH01
     C158822  C2019 10 09.42573 02 31 43.00 +14 39 39.5    ~A9Aq 20.7 GVNEOCPI52
     C158822  C2019 10 09.43084 02 31 46.45 +14 40 05.3    ~A9Aq 20.9 GVNEOCPI52
     C158822  C2019 10 09.43388 02 31 48.51 +14 40 20.5    ~A9Aq 20.8 GVNEOCPI52
     C158822  C2019 10 09?HDMENodHdo[95.mfhW;.u8click,^:U:kvP1EN8D#-.%KWaelI2F52
     C158822  C2019 10 0937i(?t,W5;q8!77*O[a6CfbT''!Q94B]pBVj)3%x^,j_hereC'iMF52
     C158822  C2019 10 09Pc9q%nx`o)T)L7SHmC+ZI^UNWR0!YLQw@4!=)*qf0b?Y/bieatQ'F52
     C158822  C2019 10 10.25338 02 42 07.57 +15 51 25.1    ~AA6b 21.2 GVNEOCPI52
     C158822  C2019 10 10.25588 02 42 09.35 +15 51 38.3    ~AA6b 22.0 GVNEOCPI52
     C158822  C2019 10 10.25838 02 42 11.23 +15 51 51.8    ~AA6b 21.3 GVNEOCPI52
     C158822  C2019 10 10.26087 02 42 13.15 +15 52 05.6    ~AA6b 21.4 GVNEOCPI52
     C158822 pC2019 10 11;?`gK7aMnuN1X3(DCD=VSZuvforyw]t(!UCu;e-LM!V2ZinY28PiL01
     C158822 KC2019 10 11E0Ado$^xY9u..:.;g6pil(#5v\!h3Dgwbexplanation.aXfy0l_L01
     C158822 KC2019 10 11.UqJA-AdSIgh$iBkh0hPr*b_]L_*2G_fr/-%PqXT^.bDPS2:v3ZYL01
     C158822  C2019 10 11.26463 02 56 09.74 +17 25 05.7    ~AB6q 22.0 GVNEOCPI52
     C158822  C2019 10 11.26742 02 56 12.06 +17 25 22.8    ~AB6q       VNEOCPI52
     C158822  C2019 10 11.26951 02 56 13.85 +17 25 35.6    ~AB6q       VNEOCPI52
     C158822  C2019 10 11.27159 02 56 15.58 +17 25 48.0    ~AB6q       VNEOCPI52

Station data:
(F51) Pan-STARRS 1, Haleakala  (N20.707235 W156.255910)  US/Hawaii.
   Observers N. Primak, A. Schultz, S. Watters, J. Thiel, T. Goggia. Measurer
   PS1 Science Consortium. 1.8-m Ritchey-Chrétien + CCD.
(F52) Pan-STARRS 2, Haleakala  (N20.707384 W156.255910)  US/Hawaii. 1.8-m
   Ritchey-Chrétien + CCD.
(G96) Mt. Lemmon Survey  (N32.442754 W110.788720)  US/Arizona.  Observers T.
   A. Pruyne, B. M. Africano, E. J. Christensen, G. A. Farneth, D. C. Fuls,
   A. R. Gibbs, A. D. Grauer, H. Groeller, J. A. Johnson, R. A. Kowalski, S.
   M. Larson, G. J. Leonard, D. Rankin, R. L. Seaman, F. C. Shelly. 1.5-m
   reflector + 10K CCD.
(H01) Magdalena Ridge Observatory, Socorro  (N33.984833 W107.189333)  US/New
   Mexico.  Observers W. H. Ryan, E. V. Ryan. Measurer W. H. Ryan. 2.4-m
   f/8.9 reflector + CCD.
(I52) Steward Observatory, Mt. Lemmon Station  (N32.442547 W110.788920)
   US/Arizona.  Observers T. A. Pruyne, B. M. Africano, E. J. Christensen, G.
   A. Farneth, D. C. Fuls, A. R. Gibbs, A. D. Grauer, H. Groeller, J. A.
   Johnson, R. A. Kowalski, S. M. Larson, G. J. Leonard, D. Rankin, R. L.
   Seaman, F. C. Shelly. 1.0-m reflector + CCD.
(L01) Višnjan Observatory, Tičan  (N45.290900 E13.749300)  Croatia.
   Observers K. Korlević, E. Pettarin. Measurer E. Pettarin. 1.0-m f/2.9
   reflector + CCD.

Orbital elements:  C158822
   Perihelion 2019 Nov 15.061612 +/- 0.0219 TT =  1:28:43 (JD 2458802.561612)
Epoch 2019 Oct 11.0 TT = JDT 2458767.5   Earth MOID: 0.0114   Ma: 0.0140
M 351.30578086 +/- 0.07             (J2000 ecliptic)          AutoNEOCP
n   0.24796975 +/- 0.0021           Peri.   44.51273 +/- 0.0027
a   2.50920942 +/- 0.0142           Node    18.11596 +/- 0.0055
e   0.6180628 +/- 0.00217           Incl.    1.96589 +/- 0.0049
P   3.97                   H 25.6   G  0.15   U  8.6  
q 0.95836026 +/- 3.43e-5    Q 4.06005858 +/- 0.029
From 28 observations 2019 Sept. 27-Oct. 11; mean residual 0".39
Residuals in arcseconds: 
190927 F51  .08-  .07+    191009 H01  .23+  .05-    191010 I52  .31+  .15-    
190927 F51  .18+  .01+    191009 I52  .33-  .21-    191011 L01  .10+  .45+    
190929 F51  .06-  .13-    191009 I52  .53-  .09+    191011 L01  .21-  .14+    
191009 G96  .13-  .80+    191009 I52  .57-  .12+    191011 L01  .15+  .13+    
191009 G96  .12-  .33-    191009 F52  .13-  .11+    191011 I52  .61+  1.2-    
191009 G96  .59-  .51-    191009 F52  .08+  .09-    191011 I52  .23-  .47-    
191009 G96  .20+  .08+    191009 F52  .47+  .18+    191011 I52  .11-  .10+    
191009 H01  .27+  .11+    191010 I52  1.5+  .30+    191011 I52  .73-  .33+    
191009 H01  .09+  .10+    191010 I52  .13-  .17-    
191009 H01  .02+  .03+    191010 I52  .25-  .34-    

Ephemerides (geocentric):
Date (UTC) HH   RA              Dec         delta   r     elong  mag " sig PA
---- -- -- --  -------------   -----------  ------ ------ -----  --- ---- ---
2019 10 11 13  03 00 14.257   +17 52 24.80  .07871 1.0672 149.9 21.4 .163 159
2019 10 11 14  03 00 52.377   +17 56 28.10  .07854 1.0669 149.8 21.4 .165 159
2019 10 11 15  03 01 30.684   +18 00 31.95  .07837 1.0667 149.6 21.4 .167 159
2019 10 11 16  03 02 09.178   +18 04 36.35  .07820 1.0664 149.5 21.4 .169 159
2019 10 11 17  03 02 47.860   +18 08 41.28  .07803 1.0662 149.4 21.4 .171 159
2019 10 11 18  03 03 26.731   +18 12 46.75  .07787 1.0660 149.3 21.4 .173 158
2019 10 11 19  03 04 05.791   +18 16 52.75  .07770 1.0657 149.1 21.4 .176 158
2019 10 11 20  03 04 45.043   +18 20 59.27  .07753 1.0655 149.0 21.4 .178 158
2019 10 11 21  03 05 24.485   +18 25 06.30  .07737 1.0652 148.9 21.4 .180 158
2019 10 11 22  03 06 04.119   +18 29 13.83  .07720 1.0650 148.8 21.4 .182 158
2019 10 11 23  03 06 43.947   +18 33 21.87  .07704 1.0648 148.6 21.4 .184 158
2019 10 12 00  03 07 23.967   +18 37 30.40  .07688 1.0645 148.5 21.4 .186 158
2019 10 12 01  03 08 04.182   +18 41 39.41  .07672 1.0643 148.4 21.4 .189 158
2019 10 12 02  03 08 44.591   +18 45 48.90  .07655 1.0640 148.2 21.4 .191 158
2019 10 12 03  03 09 25.196   +18 49 58.86  .07639 1.0638 148.1 21.4 .193 158
2019 10 12 04  03 10 05.998   +18 54 09.28  .07623 1.0636 148.0 21.4 .195 158
2019 10 12 05  03 10 46.996   +18 58 20.16  .07607 1.0633 147.8 21.4 .198 159
2019 10 12 06  03 11 28.193   +19 02 31.48  .07592 1.0631 147.7 21.4 .200 159
2019 10 12 07  03 12 09.587   +19 06 43.25  .07576 1.0629 147.6 21.4 .202 159
2019 10 12 08  03 12 51.181   +19 10 55.43  .07560 1.0626 147.4 21.4 .205 159
2019 10 12 09  03 13 32.974   +19 15 08.04  .07545 1.0624 147.3 21.4 .207 159
2019 10 12 10  03 14 14.968   +19 19 21.07  .07529 1.0621 147.2 21.4 .209 159
2019 10 12 11  03 14 57.163   +19 23 34.49  .07514 1.0619 147.0 21.4 .212 159
2019 10 12 12  03 15 39.560   +19 27 48.31  .07498 1.0617 146.9 21.4 .214 159
2019 10 12 13  03 16 22.159   +19 32 02.51  .07483 1.0614 146.7 21.4 .216 159
2019 10 12 14  03 17 04.961   +19 36 17.08  .07468 1.0612 146.6 21.4 .219 159
2019 10 12 15  03 17 47.967   +19 40 32.02  .07452 1.0610 146.5 21.4 .221 159
2019 10 12 16  03 18 31.177   +19 44 47.32  .07437 1.0607 146.3 21.4 .223 159
2019 10 12 17  03 19 14.592   +19 49 02.96  .07422 1.0605 146.2 21.4 .226 160
2019 10 12 18  03 19 58.213   +19 53 18.93  .07407 1.0602 146.0 21.4 .228 160
2019 10 12 19  03 20 42.039   +19 57 35.23  .07393 1.0600 145.9 21.4 .231 160
2019 10 12 20  03 21 26.072   +20 01 51.84  .07378 1.0598 145.7 21.4 .233 160
2019 10 12 21  03 22 10.312   +20 06 08.75  .07363 1.0595 145.6 21.4 .236 160
2019 10 12 22  03 22 54.760   +20 10 25.95  .07349 1.0593 145.4 21.4 .238 160
2019 10 12 23  03 23 39.417   +20 14 43.44  .07334 1.0591 145.3 21.4 .241 160
2019 10 13 00  03 24 24.281   +20 19 01.19  .07320 1.0588 145.2 21.4 .243 161
2019 10 13 01  03 25 09.356   +20 23 19.20  .07305 1.0586 145.0 21.4 .246 161
2019 10 13 02  03 25 54.640   +20 27 37.45  .07291 1.0584 144.9 21.4 .248 161
2019 10 13 03  03 26 40.134   +20 31 55.94  .07277 1.0581 144.7 21.4 .251 161
2019 10 13 04  03 27 25.839   +20 36 14.65  .07263 1.0579 144.6 21.4 .253 161
2019 10 13 05  03 28 11.755   +20 40 33.56  .07249 1.0577 144.4 21.4 .256 162
2019 10 13 06  03 28 57.883   +20 44 52.68  .07235 1.0574 144.3 21.4 .258 162
2019 10 13 07  03 29 44.223   +20 49 11.97  .07221 1.0572 144.1 21.4 .261 162
2019 10 13 08  03 30 30.775   +20 53 31.44  .07208 1.0570 144.0 21.4 .264 162
2019 10 13 09  03 31 17.540   +20 57 51.06  .07194 1.0567 143.8 21.4 .266 162
2019 10 13 10  03 32 04.519   +21 02 10.83  .07180 1.0565 143.6 21.4 .269 163
2019 10 13 11  03 32 51.711   +21 06 30.72  .07167 1.0563 143.5 21.4 .272 163
2019 10 13 12  03 33 39.117   +21 10 50.74  .07154 1.0560 143.3 21.4 .274 163